Location: ???????
(55.9142°N, 37.8256°E)
Time: 04:59:49
(UTC+00:00)

Cosmos 1624 Rocket - Pass Details

Date: 14 April 2024
Orbit: 755 x 781 km, 74.0° (Epoch: 23 May)

Event Time Altitude Azimuth Distance (km) Brightness Sun altitude
Rises 00:43:43 0° 331° (NNW) 3,255 7.4 -13.2°
Reaches altitude 10° 00:46:07 10° 332° (NNW) 2,321 6.6 -12.9°
Maximum altitude 00:51:24 88° 58° (ENE) 772 4.0 -12.3°
Drops below altitude 10° 00:56:37 10° 153° (SSE) 2,290 6.4 -11.8°
Sets 00:58:58 0° 153° (SSE) 3,208 7.1 -11.5°
